Location: Cul de Sac
(18.0387°N, 63.0654°W)
Time: 22:31:10
(UTC+00:00)

H-2A R/B - Pass Details

Date: 29 October 2020
Orbit: 733 x 837 km, 98.2° (Epoch: 29 November)

Event Time Altitude Azimuth Distance (km) Brightness Sun altitude
Rises 22:50:26 0° 146° (SE) 3,316 5.0 -17.0°
Enters shadow 22:52:53 10° 136° (SE) 2,430 4.3 -17.5°
Exits shadow 22:58:22 31° 59° (ENE) 1,419 2.9 -18.8°
Drops below altitude 10° 23:02:24 10° 13° (NNE) 2,441 4.4 -19.8°
Sets 23:05:00 0° 3° (N) 3,380 5.2 -20.4°
